Location: ?
(35.4064°N, 139.3593°E)
Time: 05:39:28
(UTC+00:00)

Tiangong - Visible Passes

Search period start: 09 December 2025 00:00
Search period end: 19 December 2025 00:00
Orbit: 384 x 397 km, 41.5° (Epoch: 08 December)

Date Brightness Start Highest point End Pass type
(mag) Time Alt. Az. Time Alt. Az. Time Alt. Az.
09 Dec -2.0 20:28:15 31° W 20:29:36 65° SSW 20:32:47 10° SE visible
10 Dec 0.0 19:33:23 28° ESE 19:33:23 28° ESE 19:35:03 10° ESE visible
10 Dec 0.0 21:06:19 10° W 21:08:33 18° SW 21:10:48 10° S visible
11 Dec -1.0 20:10:51 31° SSW 20:10:52 31° SSW 20:13:46 10° SSE visible
12 Dec 1.2 19:15:59 12° SE 19:15:59 12° SE 19:16:14 10° SE visible
13 Dec 0.7 19:53:27 12° S 19:53:27 12° S 19:53:49 10° S visible
